{"data":{"norad_id":63635,"epoch":"2026-09-20T12:05:51.882144Z","epoch_age_seconds":152484,"freshness":"FRESH","line1":"1 63635U 25083B   26263.50407271  .00009954  00000+0  37065-3 0  9996","line2":"2 63635  43.0015 344.7900 0001389 260.5473  99.5222 15.27590239 79865","mean_motion":15.27590239,"eccentricity":0.0001389,"inclination_deg":43.0015,"raan_deg":344.79,"arg_perigee_deg":260.5473,"mean_anomaly_deg":99.5222,"bstar":0.00037065,"rev_number":7986,"period_min":94.266116870625,"perigee_km":482.06542247125,"apogee_km":483.97145145164,"semimajor_km":6861.1554369614,"source":"CELESTRAK","updated_at":"2026-09-21T09:00:35.050686Z"}}